Weather History for CYMX - November, 2011

Change the Weather History Date:

Saturday, November 5, 2011

  Actual Average Record
Temperature  
Mean Temperature 34 °F -  
Max Temperature 44 °F 42 °F 62 °F (2008)
Min Temperature 24 °F 29 °F 24 °F (2006)
Degree Days  
Heating Degree Days 31    
Moisture  
Dew Point 25 °F    
Average Humidity 73    
Maximum Humidity 86    
Minimum Humidity 49    
Precipitation  
Precipitation 0.00 in - - ()
Sea Level Pressure  
Sea Level Pressure 30.46 in    
Wind  
Wind Speed 3 mph ()    
Max Wind Speed 8 mph    
Max Gust Speed -    
Averages and records for this station are not official NWS values.
T = Trace of Precipitation, MM = Missing Value Source: Averaged Metar Reports

Daily Weather History Graph

Daily Weather History Graph

Search for Another Location

Airport or City:

Trip Planner

Search our weather history database for the weather conditions in past years. The results will help you decide how hot, cold, wet, or windy it might be!

Date:

Astronomy

Nov. 05, 2011 Rise Set
Actual Time 7:41 AM EDT 5:37 PM EDT
Civil Twilight 7:09 AM EDT 6:08 PM EDT
Nautical Twilight 6:34 AM EDT 6:44 PM EDT
Astronomical Twilight 5:59 AM EDT 7:18 PM EDT
Moon 3:06 PM EDT (11/5) 2:35 AM EDT (11/5)
Length of Visible Light 10h 59m
Length of Day
9h 56m
Waxing Gibbous, 78% of the Moon is Illuminated
Nov 5
Waxing Gibbous
Nov 10
Full
Nov 18
Last Quarter
Nov 25
New
Dec 2
First Quarter

Hourly Weather History & Observations

Time (EDT) Temp. Windchill Dew Point Humidity Pressure Visibility Wind Dir Wind Speed Gust Speed Precip Events Conditions
12:00 AM 28.4 °F 24.6 °F 21.2 °F 74% 30.39 in 25.0 mi NW 3.5 mph - N/A   Clear
1:00 AM 28.4 °F 22.2 °F 21.2 °F 74% 30.40 in 25.0 mi West 5.8 mph - N/A   Clear
2:00 AM 24.8 °F 16.9 °F 21.2 °F 86% 30.43 in 25.0 mi West 6.9 mph - N/A   Clear
3:00 AM 26.6 °F 20.0 °F 21.2 °F 80% 30.43 in 25.0 mi West 5.8 mph - N/A   Clear
4:00 AM 26.6 °F 22.6 °F 23.0 °F 86% 30.43 in 25.0 mi WNW 3.5 mph - N/A   Clear
6:00 AM 26.6 °F - 23.0 °F 86% 30.47 in 25.0 mi Calm Calm - N/A   Clear
7:00 AM 26.6 °F - 23.0 °F 86% 30.48 in 45.0 mi West 2.3 mph - N/A   Clear
8:00 AM 24.8 °F - 21.2 °F 86% 30.49 in 45.0 mi NW 2.3 mph - N/A   Partly Cloudy
9:00 AM 28.4 °F - 24.8 °F 86% 30.50 in 45.0 mi Calm Calm - N/A   Partly Cloudy
10:00 AM 33.8 °F - 28.4 °F 81% 30.51 in 45.0 mi NNW 2.3 mph - N/A   Partly Cloudy
11:00 AM 39.2 °F - 28.4 °F 65% 30.52 in 45.0 mi Calm Calm - N/A   Partly Cloudy
12:00 PM 41.0 °F 38.0 °F 28.4 °F 61% 30.51 in 45.0 mi SSW 4.6 mph - N/A   Partly Cloudy
1:00 PM 42.8 °F 39.3 °F 28.4 °F 57% 30.49 in 45.0 mi SW 5.8 mph - N/A   Partly Cloudy
2:00 PM 42.8 °F 38.6 °F 28.4 °F 57% 30.48 in 45.0 mi SSW 6.9 mph - N/A   Partly Cloudy
4:00 PM 44.6 °F 40.2 °F 26.6 °F 49% 30.46 in 45.0 mi WSW 8.1 mph - N/A   Partly Cloudy
5:00 PM 41.0 °F 38.0 °F 28.4 °F 61% 30.45 in 45.0 mi SW 4.6 mph - N/A   Partly Cloudy
6:00 PM 39.2 °F 35.9 °F 26.6 °F 61% 30.44 in 45.0 mi SW 4.6 mph - N/A   Partly Cloudy
7:00 PM 35.6 °F 32.8 °F 24.8 °F 65% 30.44 in 25.0 mi SSW 3.5 mph - N/A   Clear
8:00 PM 33.8 °F - 24.8 °F 70% 30.44 in 25.0 mi Calm Calm - N/A   Clear
9:00 PM 30.2 °F - 23.0 °F 75% 30.43 in 25.0 mi Calm Calm - N/A   Clear
10:00 PM 30.2 °F 26.7 °F 23.0 °F 75% 30.43 in 25.0 mi SSW 3.5 mph - N/A   Clear
11:00 PM 28.4 °F - 23.0 °F 80% 30.43 in 25.0 mi WNW 2.3 mph - N/A   Clear